P/2019 Y2 ( Fuls )

Japanese version
Home page
Updated on July 27, 2020

---------------------------------------------------------------------

* Profile

Discovery Date December 21, 2019
Magnitude 18.8 mag
Discoverer D. Carson Fuls (Mount Lemmon Survey)

* Pictures

* Orbital Elements

Epoch 2020 Feb. 1.0 TT = JDT 2458880.5
T 2020 Jan. 31.80791 TT                                 Rudenko
q   2.1248463            (2000.0)            P               Q
n   0.15349696     Peri.   92.33254     -0.98930231     -0.11908295
a   3.4546405      Node    80.83675     +0.07466635     -0.90956619
e   0.3849298      Incl.    4.89626     +0.12532308     -0.39813138
P   6.42
From 634 observations 2019 Dec. 21-2020 June 12, mean residual 0".7.

* Finding Charts

* Magnitudes Graph

        m1 = 11.0 + 5 log d + 15.0 log r

---------------------------------------------------------------------

The orbital elements are published on M.P.E.C. 2020-O07.
The charts are made with StellaNavigator Ver.10 (AstroArts).
The magnitudes graphs are made with Comet for Windows.

---------------------------------------------------------------------

Copyright(C) Seiichi Yoshida (comet@aerith.net). All rights reserved.